UAL1456 KBOS-KEWR

Flight info

Callsign UAL1456
Flight time 0h 54m
Altitude 16000
Route PATSS7 PATSS NELIE FLOSI4
Aircraft B772/H-SDE2E3FGHIJ5LORVWXY/LB1D1

Departure

Time 2026-05-04 06:56
Airport Boston Logan International Airport (KBOS)

Arrival

Time 2026-05-04 07:50
Airport Newark Liberty International Airport (KEWR)
Time Latitude Longitude Altitude Speed Heading
2026-05-04 06:16 42.37147 -71.02000 33 ft 0 kts 211°
2026-05-04 06:48 42.37156 -71.01994 33 ft 0 kts 211°
2026-05-04 06:48 42.37166 -71.01985 33 ft 2 kts 200°
2026-05-04 06:49 42.37181 -71.01981 33 ft 2 kts 179°
2026-05-04 06:50 42.37232 -71.02052 33 ft 0 kts 88°
2026-05-04 06:53 42.37232 -71.02051 33 ft 0 kts 89°
2026-05-04 06:53 42.37233 -71.02025 33 ft 4 kts 87°
2026-05-04 06:53 42.37240 -71.01962 33 ft 8 kts 71°
2026-05-04 06:54 42.37289 -71.01896 33 ft 11 kts 28°
2026-05-04 06:54 42.37350 -71.01852 33 ft 9 kts 34°
2026-05-04 06:54 42.37394 -71.01780 33 ft 11 kts 88°
2026-05-04 06:54 42.37374 -71.01724 33 ft 0 kts 135°
2026-05-04 06:55 42.37373 -71.01723 33 ft 0 kts 134°
2026-05-04 06:55 42.37369 -71.01718 33 ft 4 kts 134°
2026-05-04 06:55 42.37140 -71.01408 33 ft 100 kts 135°
2026-05-04 06:55 42.36392 -71.00411 37 ft 193 kts 136°
2026-05-04 06:56 42.35377 -70.98996 788 ft 219 kts 136°
2026-05-04 06:57 42.32839 -70.83041 3608 ft 301 kts 75°
2026-05-04 06:58 42.32913 -70.80162 4385 ft 318 kts 99°
2026-05-04 06:58 42.32175 -70.77317 5317 ft 325 kts 115°
2026-05-04 06:58 42.31092 -70.74673 6158 ft 331 kts 128°
2026-05-04 06:58 42.29379 -70.72583 6965 ft 335 kts 153°
2026-05-04 06:59 42.27205 -70.71543 7627 ft 337 kts 178°
2026-05-04 06:59 42.24885 -70.71728 8478 ft 331 kts 198°
2026-05-04 06:59 42.22663 -70.72430 9344 ft 334 kts 203°
2026-05-04 06:59 42.20595 -70.73810 9824 ft 335 kts 225°
2026-05-04 07:01 42.16022 -70.93737 14406 ft 332 kts 264°
2026-05-04 07:01 42.15669 -70.96819 15032 ft 333 kts 267°
2026-05-04 07:02 42.15422 -70.99891 15632 ft 334 kts 268°
2026-05-04 07:02 42.15170 -71.02992 16246 ft 336 kts 267°
2026-05-04 07:02 42.14897 -71.06167 16844 ft 339 kts 267°
2026-05-04 07:02 42.14618 -71.09318 17423 ft 342 kts 267°
2026-05-04 07:03 42.14337 -71.12462 17898 ft 345 kts 266°
2026-05-04 07:03 42.14046 -71.15701 17976 ft 346 kts 266°
2026-05-04 07:03 42.13759 -71.18873 17973 ft 344 kts 266°
2026-05-04 07:03 42.13466 -71.22091 17977 ft 344 kts 266°
2026-05-04 07:04 42.13176 -71.25288 17973 ft 345 kts 267°
2026-05-04 07:04 42.12884 -71.28484 17989 ft 345 kts 266°
2026-05-04 07:04 42.12590 -71.31696 17975 ft 345 kts 266°
2026-05-04 07:04 42.12298 -71.34878 17958 ft 344 kts 266°
2026-05-04 07:05 42.12004 -71.38067 18003 ft 344 kts 266°
2026-05-04 07:05 42.11709 -71.41275 17972 ft 344 kts 266°
2026-05-04 07:05 42.11412 -71.44473 17964 ft 345 kts 266°
2026-05-04 07:05 42.11116 -71.47657 17964 ft 344 kts 266°
2026-05-04 07:06 42.10519 -71.54050 17969 ft 345 kts 266°
2026-05-04 07:06 42.10219 -71.57252 17970 ft 344 kts 266°
2026-05-04 07:06 42.09920 -71.60436 17966 ft 344 kts 266°
2026-05-04 07:07 42.09617 -71.63644 17967 ft 344 kts 266°
2026-05-04 07:08 42.06651 -71.86481 17971 ft 357 kts 262°
2026-05-04 07:09 42.06162 -71.89743 17972 ft 357 kts 262°
2026-05-04 07:09 42.05667 -71.93051 17971 ft 358 kts 262°
2026-05-04 07:09 42.05181 -71.96309 17972 ft 358 kts 262°
2026-05-04 07:09 42.04688 -71.99599 17968 ft 357 kts 262°
2026-05-04 07:10 42.04203 -72.02839 17952 ft 358 kts 262°
2026-05-04 07:10 42.03712 -72.06113 17976 ft 357 kts 262°
2026-05-04 07:12 42.00252 -72.28988 17977 ft 357 kts 262°
2026-05-04 07:12 41.99754 -72.32261 17990 ft 357 kts 262°
2026-05-04 07:12 41.99255 -72.35526 17990 ft 361 kts 262°
2026-05-04 07:12 41.98748 -72.38850 17984 ft 367 kts 262°
2026-05-04 07:13 41.98233 -72.42205 18002 ft 369 kts 262°
2026-05-04 07:13 41.97715 -72.45573 17989 ft 368 kts 262°
2026-05-04 07:13 41.97197 -72.48940 17987 ft 368 kts 261°
2026-05-04 07:14 41.95113 -72.62399 17926 ft 367 kts 261°
2026-05-04 07:14 41.94591 -72.65752 17927 ft 368 kts 261°
2026-05-04 07:15 41.94033 -72.69095 17929 ft 370 kts 257°
2026-05-04 07:15 41.93275 -72.72418 17934 ft 370 kts 256°
2026-05-04 07:15 41.92495 -72.75687 17930 ft 370 kts 255°
2026-05-04 07:15 41.91702 -72.79005 17929 ft 371 kts 255°
2026-05-04 07:16 41.90921 -72.82270 17927 ft 370 kts 255°
2026-05-04 07:16 41.90128 -72.85590 17925 ft 371 kts 255°
2026-05-04 07:16 41.89347 -72.88854 17918 ft 370 kts 255°
2026-05-04 07:16 41.88557 -72.92148 17919 ft 370 kts 255°
2026-05-04 07:17 41.87764 -72.95455 17851 ft 370 kts 255°
2026-05-04 07:17 41.86983 -72.98711 17886 ft 370 kts 255°
2026-05-04 07:17 41.86190 -73.02010 17903 ft 371 kts 255°
2026-05-04 07:17 41.85391 -73.05326 17894 ft 370 kts 255°
2026-05-04 07:18 41.84603 -73.08593 17910 ft 370 kts 255°
2026-05-04 07:18 41.83813 -73.11865 17914 ft 370 kts 255°
2026-05-04 07:18 41.83017 -73.15158 17906 ft 370 kts 255°
2026-05-04 07:18 41.82227 -73.18418 17914 ft 370 kts 255°
2026-05-04 07:19 41.81432 -73.21699 17911 ft 371 kts 255°
2026-05-04 07:19 41.80627 -73.25012 17919 ft 371 kts 255°
2026-05-04 07:19 41.79835 -73.28272 17905 ft 372 kts 255°
2026-05-04 07:19 41.79034 -73.31561 17906 ft 371 kts 255°
2026-05-04 07:20 41.78231 -73.34851 17916 ft 371 kts 255°
2026-05-04 07:20 41.77427 -73.38145 17916 ft 372 kts 255°
2026-05-04 07:20 41.76625 -73.41424 17907 ft 372 kts 255°
2026-05-04 07:20 41.75827 -73.44685 17918 ft 372 kts 255°
2026-05-04 07:22 41.70141 -73.67770 17948 ft 373 kts 254°
2026-05-04 07:22 41.69324 -73.71069 17927 ft 374 kts 254°
2026-05-04 07:23 41.68499 -73.74394 17912 ft 375 kts 254°
2026-05-04 07:23 41.67678 -73.77698 17947 ft 374 kts 254°
2026-05-04 07:23 41.66862 -73.80979 17922 ft 374 kts 254°
2026-05-04 07:23 41.66056 -73.84262 17929 ft 375 kts 255°
2026-05-04 07:24 41.65276 -73.87578 17936 ft 375 kts 255°
2026-05-04 07:24 41.64494 -73.90908 17924 ft 375 kts 255°
2026-05-04 07:24 41.63715 -73.94214 17926 ft 376 kts 255°
2026-05-04 07:24 41.62929 -73.97539 17928 ft 375 kts 255°
2026-05-04 07:25 41.62138 -74.00877 17927 ft 375 kts 255°
2026-05-04 07:26 41.56634 -74.23952 17950 ft 380 kts 255°
2026-05-04 07:27 41.55711 -74.27126 17917 ft 363 kts 246°
2026-05-04 07:27 41.54337 -74.29881 17866 ft 349 kts 234°
2026-05-04 07:27 41.52669 -74.32160 17784 ft 338 kts 226°
2026-05-04 07:27 41.50809 -74.33982 17610 ft 333 kts 217°
2026-05-04 07:28 41.48740 -74.35406 17273 ft 335 kts 208°
2026-05-04 07:28 41.46510 -74.36378 16944 ft 337 kts 199°
2026-05-04 07:28 41.44197 -74.36861 16580 ft 341 kts 190°
2026-05-04 07:28 41.41799 -74.36845 16171 ft 347 kts 180°
2026-05-04 07:29 41.39402 -74.36303 15722 ft 351 kts 171°
2026-05-04 07:29 41.37098 -74.35284 15281 ft 352 kts 164°
2026-05-04 07:29 41.34818 -74.34115 14832 ft 350 kts 163°
2026-05-04 07:29 41.32556 -74.32945 14406 ft 348 kts 163°
2026-05-04 07:30 41.30283 -74.31770 13957 ft 346 kts 163°
2026-05-04 07:30 41.28043 -74.30611 13499 ft 344 kts 163°
2026-05-04 07:30 41.25821 -74.29464 13069 ft 342 kts 163°
2026-05-04 07:30 41.23626 -74.28332 12643 ft 341 kts 163°
2026-05-04 07:31 41.21405 -74.27185 12277 ft 337 kts 163°
2026-05-04 07:31 41.19239 -74.26067 11984 ft 332 kts 163°
2026-05-04 07:33 41.13203 -74.10763 9740 ft 296 kts 48°
2026-05-04 07:33 41.14651 -74.08935 9419 ft 284 kts 28°
2026-05-04 07:33 41.16369 -74.07714 9109 ft 278 kts 21°
2026-05-04 07:33 41.18109 -74.06585 8820 ft 276 kts 20°
2026-05-04 07:34 41.19814 -74.05479 8515 ft 274 kts 20°
2026-05-04 07:34 41.21532 -74.04365 8231 ft 272 kts 20°
2026-05-04 07:34 41.23210 -74.03277 7944 ft 270 kts 20°
2026-05-04 07:34 41.24902 -74.02181 7698 ft 267 kts 20°
2026-05-04 07:35 41.26540 -74.01112 7513 ft 261 kts 20°
2026-05-04 07:35 41.28162 -74.00048 7347 ft 256 kts 20°
2026-05-04 07:35 41.29754 -73.99003 7152 ft 252 kts 20°
2026-05-04 07:35 41.31299 -73.97968 6919 ft 251 kts 21°
2026-05-04 07:36 41.32852 -73.96902 6650 ft 250 kts 21°
2026-05-04 07:36 41.34280 -73.95541 6369 ft 260 kts 45°
2026-05-04 07:38 41.28014 -73.86776 4152 ft 251 kts 197°
2026-05-04 07:38 41.26302 -73.87144 3874 ft 251 kts 195°
2026-05-04 07:38 41.24580 -73.87503 3704 ft 246 kts 195°
2026-05-04 07:38 41.22924 -73.87842 3715 ft 233 kts 195°
2026-05-04 07:39 41.21360 -73.88152 3717 ft 224 kts 195°
2026-05-04 07:39 41.19823 -73.88448 3723 ft 222 kts 195°
2026-05-04 07:39 41.18295 -73.88743 3721 ft 222 kts 195°
2026-05-04 07:39 41.16743 -73.89034 3723 ft 222 kts 195°
2026-05-04 07:40 41.15223 -73.89321 3727 ft 222 kts 195°
2026-05-04 07:40 41.13685 -73.89608 3706 ft 220 kts 195°
2026-05-04 07:40 41.12170 -73.89884 3593 ft 215 kts 195°
2026-05-04 07:40 41.10653 -73.90176 3653 ft 220 kts 198°
2026-05-04 07:41 41.09161 -73.90617 3664 ft 219 kts 203°
2026-05-04 07:41 41.07721 -73.91235 3664 ft 217 kts 206°
2026-05-04 07:41 41.06344 -73.91860 3665 ft 217 kts 206°
2026-05-04 07:41 41.04951 -73.92484 3668 ft 217 kts 206°
2026-05-04 07:42 41.03527 -73.93122 3667 ft 216 kts 206°
2026-05-04 07:42 41.02103 -73.93764 3668 ft 217 kts 206°
2026-05-04 07:42 41.00721 -73.94484 3650 ft 212 kts 212°
2026-05-04 07:42 40.99402 -73.95380 3420 ft 212 kts 217°
2026-05-04 07:43 40.98262 -73.96534 3252 ft 204 kts 229°
2026-05-04 07:43 40.97221 -73.97802 3074 ft 202 kts 229°
2026-05-04 07:43 40.96190 -73.99059 3037 ft 201 kts 229°
2026-05-04 07:43 40.95036 -74.00116 3028 ft 206 kts 212°
2026-05-04 07:44 40.93691 -74.00886 3032 ft 211 kts 211°
2026-05-04 07:44 40.92350 -74.01640 3038 ft 210 kts 210°
2026-05-04 07:44 40.91016 -74.02402 3039 ft 210 kts 211°
2026-05-04 07:44 40.89671 -74.03206 3035 ft 209 kts 213°
2026-05-04 07:45 40.88376 -74.04037 3035 ft 209 kts 214°
2026-05-04 07:45 40.87089 -74.04955 3032 ft 208 kts 217°
2026-05-04 07:45 40.85839 -74.05884 3033 ft 208 kts 217°
2026-05-04 07:45 40.84576 -74.06816 3033 ft 207 kts 217°
2026-05-04 07:46 40.83316 -74.07737 2907 ft 206 kts 215°
2026-05-04 07:46 40.82064 -74.08594 2583 ft 196 kts 214°
2026-05-04 07:46 40.80874 -74.09396 2540 ft 191 kts 215°
2026-05-04 07:46 40.79736 -74.10144 2318 ft 180 kts 214°
2026-05-04 07:47 40.78631 -74.10915 1970 ft 179 kts 216°
2026-05-04 07:47 40.77517 -74.11644 1724 ft 175 kts 212°
2026-05-04 07:47 40.76454 -74.12292 1499 ft 158 kts 213°
2026-05-04 07:49 40.70680 -74.15955 227 ft 129 kts 209°
2026-05-04 07:49 40.69884 -74.16460 50 ft 130 kts 208°
2026-05-04 07:49 40.69150 -74.16932 21 ft 100 kts 205°
2026-05-04 07:50 40.68616 -74.17265 21 ft 72 kts 206°
2026-05-04 07:50 40.68225 -74.17512 21 ft 55 kts 205°
2026-05-04 07:50 40.68030 -74.17651 21 ft 13 kts 236°
2026-05-04 07:50 40.68023 -74.17674 21 ft 0 kts 262°
2026-05-04 07:51 40.68021 -74.17714 21 ft 8 kts 270°
2026-05-04 07:51 40.68022 -74.17728 21 ft 4 kts 278°
2026-05-04 07:51 40.68046 -74.17808 21 ft 14 kts 297°
2026-05-04 07:51 40.68095 -74.17901 21 ft 10 kts 316°
2026-05-04 07:52 40.68154 -74.17980 21 ft 13 kts 307°
2026-05-04 07:52 40.68182 -74.18013 21 ft 0 kts 333°
2026-05-04 07:52 40.68215 -74.18020 21 ft 9 kts
2026-05-04 07:52 40.68296 -74.18010 21 ft 13 kts
2026-05-04 07:53 40.68382 -74.18006 21 ft 13 kts
2026-05-04 07:54 40.68440 -74.18251 21 ft 0 kts 205°